[[{"header":{"parameterUnit":"m.s-1","parameterCategory":1,"la1":30.2991,"la2":30.254,"lo1":-89.0895,"lo2":-89.0444,"dy":0.0017,"dx":0.0017,"nx":28,"ny":28,"refTime":"2024-12-05T09:00:00:Z","depth":0,"parameterNumber":2,"parameterNumberName":"U-component_of_WINDS"},"data":[0,0,0,0,0,0,0,0,0,0,0,0,0,0,0,0,0,0,0,0,0,0,0,0,0,0,0,0,0,0,0,0,0,0,0,0,0,0,0,0,0,0,0,0,0,0,0,0,0,0,0,0,0,0,0,0,0,0,-2.516,-2.5161,0,-2.5173,-2.5173,-2.5173,-2.5093,-2.5091,-2.5089,-2.5086,-2.5101,-2.5104,-2.5106,0,0,0,0,0,0,0,0,0,0,0,0,0,-2.5068,-2.5071,-2.516,-2.5161,-2.5161,-2.5173,-2.5173,-2.5173,-2.5094,-2.5091,-2.5088,-2.5085,-2.51,-2.5103,-2.5106,0,0,0,0,0,0,0,0,0,0,0,0,0,-2.5098,-2.5071,-2.516,-2.5122,-2.5119,-2.5173,-2.5173,-2.5173,-2.5094,-2.5091,-2.5087,-2.5084,-2.5099,-2.5103,-2.5107,-2.5198,0,0,-2.5118,-2.512,0,0,0,0,0,0,0,0,-2.5096,-2.5101,-2.5128,-2.5125,-2.5121,-2.5128,-2.5146,-2.5182,-2.5095,-2.5104,-2.5086,-2.5082,-2.5113,-2.5115,-2.5125,-2.5199,-2.5199,-2.5119,-2.5121,-2.5123,-2.5124,0,0,0,0,0,0,0,-2.5094,-2.51,-2.5165,-2.5128,-2.5124,-2.5105,-2.5105,-2.5152,-2.5127,-2.5103,-2.5097,-2.5099,-2.5111,-2.5122,-2.5125,-2.52,-2.5119,-2.5122,-2.5124,-2.5126,-2.5347,-2.5351,0,0,0,0,0,0,-2.5097,-2.5099,-2.5165,-2.5166,-2.51,-2.5109,-2.511,-2.5129,-2.5127,-2.5123,-2.5102,-2.5096,-2.5117,-2.5121,-2.5125,-2.5231,-2.5122,-2.5126,-2.5128,-2.5344,-2.5348,-2.5352,0,0,0,0,0,0,-2.5095,-2.5104,-2.5164,-2.5131,-2.5137,-2.5115,-2.5137,-2.5131,-2.5142,-2.5126,-2.5121,-2.5118,-2.5115,-2.512,-2.518,-2.5231,-2.5128,-2.5131,-2.5339,-2.5345,-2.535,-2.5445,0,0,0,0,0,0,-2.5093,-2.5103,-2.5138,-2.5132,-2.5139,-2.5219,-2.514,-2.5134,-2.5149,-2.514,-2.514,-2.5137,-2.5112,-2.5175,-2.5184,-2.5234,-2.5134,-2.5335,-2.5342,-2.5348,-2.5437,-2.5453,-2.5467,0,0,0,0,0,-2.509,-2.5165,-2.514,-2.5149,-2.5182,-2.5222,-2.5226,-2.5196,-2.5153,-2.5188,-2.5177,-2.5137,-2.5224,-2.5182,-2.5191,-2.5243,-2.5331,-2.534,-2.5348,-2.5431,-2.545,-2.5466,0,0,0,0,0,0,-2.5179,-2.5164,-2.5136,-2.5211,-2.5219,-2.5209,-2.5252,-2.5218,-2.5238,-2.5229,-2.5191,-2.5192,-2.5259,-2.5257,-2.521,-2.5331,-2.527,-2.528,-2.533,-2.5348,-2.5362,-2.5362,-2.5137,0,0,0,0,0,-2.5207,-2.5241,-2.5226,-2.5294,-2.5299,-2.5275,-2.5291,-2.5267,-2.5274,-2.5277,-2.527,-2.5279,-2.5307,-2.5327,-2.5353,-2.5436,-2.5435,-2.5476,-2.5491,-2.5503,-2.5513,-2.5556,-2.5574,-2.5379,-2.5379,-2.5379,0,0,-2.5266,-2.5262,-2.5286,-2.5312,-2.5314,-2.5351,-2.5278,-2.532,-2.5346,-2.5283,-2.5339,-2.5335,-2.5341,-2.5413,-2.5444,-2.5414,-2.5566,-2.5513,-2.5523,-2.5527,-2.5566,-2.5585,-2.5601,-2.5384,-2.5383,-2.5382,0,0,-2.5392,-2.5393,-2.5449,-2.5452,-2.5457,-2.544,-2.5454,-2.5448,-2.5443,-2.5498,-2.5451,-2.5482,-2.5533,-2.5539,-2.5549,-2.5675,-2.5639,-2.5685,-2.5762,-2.5804,-2.5819,-2.5833,-2.5878,-2.5895,-2.5694,-2.5695,-2.5695,0,-2.5466,-2.5518,-2.5482,-2.5526,-2.5539,-2.5482,-2.5538,-2.5544,-2.5557,-2.5567,-2.5532,-2.5593,-2.5594,-2.5666,-2.5697,-2.5706,-2.5721,-2.5685,-2.582,-2.5833,-2.5845,-2.5888,-2.5905,-2.57,-2.57,-2.5699,-2.5698,0,-2.5607,-2.5644,-2.5689,-2.5702,-2.5719,-2.5769,-2.5741,-2.5763,-2.5737,-2.5724,-2.578,-2.5778,-2.5802,-2.5817,-2.5793,-2.5886,-2.5866,-2.5826,-2.5765,-2.587,-2.5909,-2.5925,-2.5708,-2.5706,-2.5705,-2.5703,0,0,-2.5792,-2.5783,-2.58,-2.5804,-2.5804,-2.5832,-2.5879,-2.5901,-2.5921,-2.5931,-2.597,-2.6013,-2.5976,-2.5987,-2.5962,-2.5999,-2.6099,-2.5954,-2.5954,-2.5982,-2.6201,-2.6232,-2.6251,-2.6074,-2.6077,-2.6079,-2.62,0,-2.5915,-2.5995,-2.5963,-2.6046,-2.6079,-2.6024,-2.6065,-2.6069,-2.6058,-2.6084,-2.6072,-2.6103,-2.6051,-2.6057,-2.6091,-2.608,-2.6143,-2.607,-2.611,-2.6112,-2.6111,-2.6272,-2.6304,-2.6419,-2.6216,-2.6218,-2.622,0,-2.607,-2.6086,-2.6171,-2.6164,-2.6176,-2.6214,-2.6231,-2.6257,-2.626,-2.6249,-2.6261,-2.6227,-2.6273,-2.621,-2.6273,-2.6224,-2.6238,-2.6235,-2.6239,-2.6242,-2.6173,-2.628,-2.6455,-2.6472,-2.6244,-2.6242,-2.624,0,-2.6197,-2.6239,-2.6295,-2.63,-2.6293,-2.6321,-2.6319,-2.6319,-2.6334,-2.6349,-2.6358,-2.6378,-2.639,-2.6407,-2.6379,-2.6336,-2.6446,-2.6381,-2.6438,-2.6439,-2.6465,-2.6464,-2.6645,-2.6473,-2.6473,-2.6472,-2.6472,0,-2.6338,-2.6393,-2.6351,-2.6386,-2.6445,-2.6408,-2.6468,-2.646,-2.646,-2.6492,-2.6446,-2.6477,-2.6439,-2.6467,-2.6446,-2.65,-2.6506,-2.6498,-2.6492,-2.6503,-2.6504,-2.6513,-2.6504,-2.6477,-2.6476,-2.6475,-2.6474,0,-2.649,-2.6464,-2.6522,-2.6509,-2.6507,-2.6552,-2.6541,-2.6573,-2.6557,-2.6598,-2.6606,-2.6582,-2.6612,-2.6585,-2.6615,-2.6601,-2.6673,-2.6656,-2.6672,-2.6668,-2.6726,-2.6721,-2.692,-2.6944,-2.6756,-2.6758,-2.6759,0,-2.6583,-2.6623,-2.6614,-2.6632,-2.6632,-2.6662,-2.6676,-2.664,-2.6657,-2.6663,-2.6694,-2.672,-2.6739,-2.6789,-2.6775,-2.6797,-2.6779,-2.6847,-2.6782,-2.6791,-2.6781,-2.6779,-2.6782,-2.6861,-2.6863,-2.6865,-2.6866,0,-2.675,-2.6734,-2.6756,-2.6774,-2.6792,-2.6804,-2.6813,-2.683,-2.6793,-2.6814,-2.6844,-2.6858,-2.6887,-2.6913,-2.693,-2.6928,-2.6892,-2.6887,-2.6901,-2.6913,-2.6921,-2.6917,-2.6709,-2.6883,-2.6881,-2.688,-2.6879,-2.6878,-2.6875,-2.6907,-2.6906,-2.6932,-2.6934,-2.6942,-2.6971,-2.6958,-2.6982,-2.7002,-2.6979,-2.7015,-2.7016,-2.7034,-2.7037,-2.7064,-2.7036,-2.7057,-2.7062,-2.7068,-2.7077,-2.6916,-2.7067,-2.7067,-2.7066,-2.7066,-2.7066,0,-2.7039,-2.7035,-2.7059,-2.7071,-2.7091,-2.7053,-2.706,-2.708,-2.7112,-2.7115,-2.7134,-2.7167,-2.7192,-2.7178,-2.7199,-2.7224,-2.7208,-2.7231,-2.7229,-2.7229,-2.7101,-2.7086,-2.7244,-2.7244,-2.7244,-2.7244,-2.7244,-2.7244,-2.7127,-2.718,-2.7165,-2.7218,-2.7213,-2.7247,-2.7254,-2.7262,-2.7264,-2.7303,-2.7323,-2.7313,-2.731,-2.733,-2.7351,-2.7346,-2.7357,-2.7386,-2.7376,-2.7256,-2.7239,-2.7222,-2.7208,-2.7388,-2.7389,-2.7501,-2.7503,-2.7503]},{"header":{"parameterUnit":"m.s-1","parameterCategory":1,"la1":30.2991,"la2":30.254,"lo1":-89.0895,"lo2":-89.0444,"dy":0.0017,"dx":0.0017,"nx":28,"ny":28,"refTime":"2024-12-05T09:00:00:Z","depth":0,"parameterNumber":3,"parameterNumberName":"V-component_of_WINDS"},"data":[0,0,0,0,0,0,0,0,0,0,0,0,0,0,0,0,0,0,0,0,0,0,0,0,0,0,0,0,0,0,0,0,0,0,0,0,0,0,0,0,0,0,0,0,0,0,0,0,0,0,0,0,0,0,0,0,0,0,-8.0093,-8.0094,0,-8.0223,-8.0224,-8.0226,-8.0144,-8.014,-8.0137,-8.0133,-8.0259,-8.0266,-8.0273,0,0,0,0,0,0,0,0,0,0,0,0,0,-7.9767,-7.9773,-8.0093,-8.0095,-8.0096,-8.0223,-8.0224,-8.0226,-8.0145,-8.014,-8.0136,-8.0131,-8.0257,-8.0265,-8.0273,0,0,0,0,0,0,0,0,0,0,0,0,0,-7.9903,-7.9775,-8.0093,-8.0071,-8.007,-8.0222,-8.0225,-8.0227,-8.0146,-8.014,-8.0134,-8.0129,-8.0254,-8.0264,-8.0274,-8.0453,0,0,-8.0306,-8.0311,0,0,0,0,0,0,0,0,-7.9896,-7.9916,-8.0073,-8.0073,-8.0072,-8.0162,-8.0156,-8.0302,-8.0147,-8.0117,-8.0133,-8.0126,-8.0231,-8.0243,-8.0279,-8.0459,-8.0464,-8.0307,-8.0313,-8.0318,-8.0321,0,0,0,0,0,0,0,-7.9886,-7.9909,-8.0144,-8.0075,-8.0075,-8.0052,-8.0065,-8.0183,-8.0204,-8.0119,-8.0114,-8.0131,-8.023,-8.027,-8.0282,-8.0466,-8.0307,-8.0316,-8.0322,-8.0326,-8.0796,-8.0802,0,0,0,0,0,0,-7.988,-7.9902,-8.014,-8.0148,-7.9968,-8.0063,-8.0078,-8.0139,-8.0203,-8.0207,-8.0135,-8.0126,-8.0255,-8.027,-8.0286,-8.0498,-8.0318,-8.0327,-8.0333,-8.079,-8.0797,-8.0804,0,0,0,0,0,0,-7.9873,-7.9902,-8.0135,-8.0024,-8.0052,-8.0075,-8.0144,-8.0144,-8.0184,-8.0215,-8.0217,-8.0173,-8.0251,-8.0271,-8.0412,-8.0501,-8.0332,-8.0341,-8.0782,-8.0792,-8.0801,-8.0924,0,0,0,0,0,0,-7.9864,-7.99,-7.997,-8.0026,-8.0058,-8.0261,-8.0149,-8.0151,-8.0203,-8.0193,-8.0251,-8.0255,-8.0248,-8.0397,-8.0422,-8.0512,-8.0349,-8.0774,-8.0786,-8.0798,-8.0912,-8.0937,-8.0958,0,0,0,0,0,-7.9853,-7.9998,-7.9974,-8.0003,-8.0146,-8.0267,-8.0285,-8.0276,-8.0211,-8.028,-8.0299,-8.0253,-8.0488,-8.0412,-8.044,-8.0534,-8.0769,-8.0783,-8.0797,-8.0902,-8.0932,-8.0957,0,0,0,0,0,0,-7.9949,-8.0005,-7.9979,-8.0147,-8.0203,-8.0253,-8.034,-8.0308,-8.0381,-8.0368,-8.0352,-8.0365,-8.0512,-8.0537,-8.0452,-8.0709,-8.0617,-8.0638,-8.0688,-8.0717,-8.0739,-8.0729,-8.0358,0,0,0,0,0,-7.9991,-8.0087,-8.0129,-8.0273,-8.0303,-8.0317,-8.0369,-8.0358,-8.0414,-8.0436,-8.0466,-8.052,-8.0606,-8.0662,-8.0743,-8.0915,-8.0926,-8.0994,-8.1017,-8.1035,-8.1053,-8.1144,-8.1175,-8.085,-8.085,-8.085,0,0,-8.0076,-8.0118,-8.0179,-8.0294,-8.0336,-8.0433,-8.0337,-8.0444,-8.0515,-8.0451,-8.0587,-8.0611,-8.067,-8.0827,-8.0897,-8.0852,-8.1145,-8.1053,-8.1068,-8.1075,-8.1162,-8.1192,-8.122,-8.086,-8.0858,-8.0856,0,0,-8.0282,-8.0324,-8.0449,-8.0493,-8.0559,-8.0567,-8.0597,-8.0652,-8.0666,-8.0802,-8.0756,-8.0839,-8.0987,-8.1031,-8.1073,-8.1295,-8.1254,-8.1321,-8.144,-8.1529,-8.1555,-8.1577,-8.1655,-8.1683,-8.1339,-8.1339,-8.1339,0,-8.0379,-8.0526,-8.0516,-8.0627,-8.0678,-8.0627,-8.0752,-8.0794,-8.0882,-8.0917,-8.0866,-8.1051,-8.1087,-8.1253,-8.1307,-8.1343,-8.1375,-8.1314,-8.1552,-8.1575,-8.1595,-8.167,-8.1699,-8.1347,-8.1346,-8.1345,-8.1344,0,-8.0642,-8.0745,-8.0837,-8.0926,-8.0987,-8.1104,-8.1109,-8.1172,-8.1154,-8.1167,-8.1305,-8.1347,-8.1435,-8.1473,-8.1457,-8.1637,-8.1607,-8.1555,-8.1461,-8.1634,-8.1704,-8.1732,-8.1358,-8.1355,-8.1353,-8.1351,0,0,-8.0912,-8.0994,-8.1028,-8.1068,-8.1136,-8.1214,-8.1327,-8.1416,-8.1469,-8.1531,-8.1624,-8.1751,-8.1703,-8.175,-8.1738,-8.1817,-8.1988,-8.1754,-8.1755,-8.1795,-8.2188,-8.2226,-8.226,-8.1962,-8.1967,-8.1972,-8.2182,0,-8.1121,-8.1323,-8.1317,-8.1504,-8.1597,-8.155,-8.1649,-8.17,-8.1715,-8.1794,-8.1809,-8.1899,-8.1829,-8.1857,-8.1933,-8.1951,-8.2067,-8.1936,-8.2047,-8.2051,-8.2033,-8.2296,-8.2338,-8.2535,-8.2209,-8.2214,-8.2217,0,-8.1392,-8.1466,-8.1663,-8.1717,-8.1756,-8.1845,-8.1925,-8.2002,-8.2058,-8.2063,-8.2117,-8.2092,-8.2204,-8.2109,-8.2263,-8.2174,-8.2219,-8.2234,-8.2241,-8.2251,-8.2144,-8.2312,-8.2597,-8.2627,-8.226,-8.2257,-8.2254,0,-8.1569,-8.1717,-8.1853,-8.1888,-8.1955,-8.2019,-8.2049,-8.21,-8.2153,-8.2222,-8.2256,-8.2336,-8.238,-8.2441,-8.2437,-8.2369,-8.2593,-8.2497,-8.2598,-8.2598,-8.2647,-8.2644,-8.2943,-8.2677,-8.2677,-8.2676,-8.2676,0,-8.1803,-8.1925,-8.1933,-8.2018,-8.2152,-8.2143,-8.2275,-8.2298,-8.2344,-8.243,-8.2393,-8.2473,-8.2464,-8.2544,-8.2542,-8.2669,-8.2689,-8.2694,-8.2692,-8.2697,-8.2697,-8.2726,-8.2712,-8.2684,-8.2682,-8.2681,-8.2679,0,-8.2022,-8.2033,-8.2179,-8.2231,-8.2247,-8.2344,-8.2386,-8.2465,-8.2476,-8.2585,-8.261,-8.2628,-8.272,-8.2723,-8.2829,-8.2827,-8.2981,-8.2964,-8.2963,-8.296,-8.306,-8.305,-8.3388,-8.3431,-8.3138,-8.3141,-8.3143,0,-8.2171,-8.2264,-8.2326,-8.2382,-8.2417,-8.2508,-8.2562,-8.2556,-8.2614,-8.2684,-8.2754,-8.2844,-8.2915,-8.3065,-8.3085,-8.3165,-8.3149,-8.3262,-8.3161,-8.3163,-8.315,-8.3144,-8.3152,-8.3281,-8.3284,-8.3287,-8.3289,0,-8.2432,-8.2433,-8.2515,-8.2599,-8.2666,-8.273,-8.279,-8.2838,-8.2838,-8.2904,-8.3,-8.3056,-8.3164,-8.3253,-8.3331,-8.3358,-8.3324,-8.3321,-8.3349,-8.3355,-8.335,-8.3353,-8.3016,-8.3313,-8.3311,-8.3309,-8.3308,-8.3307,-8.262,-8.2701,-8.2757,-8.2849,-8.2894,-8.2951,-8.3027,-8.3049,-8.313,-8.322,-8.321,-8.3316,-8.3368,-8.3469,-8.3504,-8.3584,-8.3545,-8.3585,-8.3595,-8.3605,-8.3615,-8.3338,-8.3598,-8.3598,-8.3597,-8.3596,-8.3596,0,-8.2879,-8.2914,-8.2998,-8.3085,-8.3156,-8.312,-8.3184,-8.3246,-8.334,-8.3393,-8.3465,-8.3573,-8.3659,-8.3687,-8.3769,-8.3829,-8.3815,-8.385,-8.3845,-8.3852,-8.3646,-8.3614,-8.386,-8.386,-8.386,-8.386,-8.386,-8.386,-8.3023,-8.3156,-8.3164,-8.3319,-8.3351,-8.3457,-8.3496,-8.3548,-8.359,-8.3714,-8.3786,-8.3805,-8.3846,-8.3932,-8.4008,-8.4013,-8.4045,-8.4087,-8.4086,-8.3893,-8.3867,-8.3841,-8.3811,-8.4095,-8.4095,-8.4285,-8.4287,-8.4288]}]]